Weather Roundup
Issued by NWS Corpus Christi, TX

Home | Current Version | Previous Version | Text Only | Print | Product List | Glossary On
Versions: 1 2 3 4 5 6 7 8 9 10 11 12 13 14 15 16 17 18 19 20 21 22 23 24 25 26 27 28 29 30 31 32 33 34 35 36 37 38 39 40 41 42 43 44 45 46 47 48 49 50
000
ASUS44 KCRP 191510
HRRCRP

SOUTH TEXAS REGIONAL WEATHER ROUNDUP
NATIONAL WEATHER SERVICE CORPUS CHRISTI TX
1000 AM CDT SUN APR 19 2015


TXZ229>244-191600-
...CORPUS CHRISTI AREA OBSERVATIONS...

CITY           SKY/WX    TMP DP  RH WIND       PRES   REMARKS
CORPUS CHRISTI MOSUNNY   75  70  84 S9        29.81F
NAS CORPUS CHR MOSUNNY   72  69  90 SE10      29.82S
ROCKPORT       PTSUNNY   75  70  84 SE8       29.82S
KINGSVILLE NAS CLOUDY    76  73  91 S6        29.82S
ALICE          CLOUDY    76  69  79 S6        29.82S
FALFURRIAS     CLOUDY    75  71  86 SE5       29.82S
$$

...VICTORIA AREA OBSERVATIONS...

CITY           SKY/WX    TMP DP  RH WIND       PRES   REMARKS
VICTORIA       CLOUDY    70  69  97 S3        29.84S
BEEVILLE       CLOUDY    71  71 100 SW3       29.84S
PLEASANTON     CLOUDY    70  66  86 S5        29.85S
SAN ANTONIO    PTSUNNY   73  67  81 SW9       29.85R
$$

...LAREDO AREA OBSERVATIONS...

CITY           SKY/WX    TMP DP  RH WIND       PRES   REMARKS
LAREDO         CLOUDY    69  67  93 E5        29.88R
COTULLA        CLOUDY    69  66  90 CALM      29.85S FOG
DEL RIO        MOSUNNY   70  63  78 NW7       29.87R
MCALLEN        PTSUNNY   80  73  79 E7        29.81S
HEBBRONVILLE     N/A     70  69  97 SE6       29.85S
$$

...OTHER TEXAS OBSERVATIONS...

CITY           SKY/WX    TMP DP  RH WIND       PRES   REMARKS
BROWNSVILLE    CLOUDY    76  75  97 E7        29.82R
HOUSTON        SUNNY     71  60  68 SW8       29.82F
COL. STATION   PTSUNNY   68  64  87 MISG      29.80F
AUSTIN         CLOUDY    71  68  90 SW12G22   29.81S
WACO           MOSUNNY   70  65  84 SW15      29.76F
FORT WORTH     PTSUNNY   65  62  90 S8        29.71S
WICHITA FALLS  PTSUNNY   60  54  80 NW16      29.75R
LUBBOCK        SUNNY     59  35  40 N31G38    29.92R
EL PASO        SUNNY     64  21  19 VRB6      30.00R
$$

...MARINE OBSERVATIONS...

STATION/POSITION TIME  SKY/WX   TEMP    WIND        PRES    VSBY  WAVE   SWELL
                                AIR SEA DIR/SP/G                  HT/PER HT/PER
                 (UTC)          (F)     (DEG/KT/KT) (MB)    (MI)  (FT/S) (FT/S)
PORT ARANSAS     1500            72 73  120/ 10/ 11 1010.0S
BUOY 90 E PORT A 1450            74 74  140/  8/  8 1010.5R         2/ 4   2/ 6
BUOY 45 SE BAFFI 1450            74 74  100/ 10/ 12 1009.6R         3/ 6   3/ 6
BUOY 200 E PT IS 1450            78 77  120/  4/  6 1010.5R         3/ 7   3/ 7
BUOY 15 E GALVES 1450            75 72  190/  8/ 10 1009.6R         1/ 7   2/ 7
$$



USA.gov is the U.S. government's official web portal to all federal, state and local government web resources and services.